Date String (YYYY-MM-DD hh:mm:ss) UTC,Instrument flags,absolute air pressure of the measurement (hPa),sample flow rate (lpm),inlet stack bypass flow (lpm),air temperature of the measurement (°C),ambient temperature measured by the external sensor (°C),aerosol sample conditioner tube jacket temperature (°C),OPC LED temperature (°C),internal box temperature (°C),relative humidity of the measurement (%),span deviation,mass concentration of particles derived from Lorenz-Mie calculation of OPC scattering (μg/m³),mass concentration of particles derived from Lorenz-Mie calculation of OPC scattering (μg/m³),mass concentration of particles derived from Lorenz-Mie calculation of OPC scattering (μg/m³)
DateTimeUTC,F1_M11,P_M11,Q1_M11,Q2_M11,T1_M11,T2_M11,T3_M11,T4_M11,T5_M11,U1_M11,ZSPAN_M11,X0_M11,X2_M11,X1_M11
2023-07-07 09:00:00,SystemResetWarning,0830.0,5.01,000.00,029.8,028.5,000.0,038.2,031.3,24.7,0000.0,0009.63,0005.85,0005.28
2023-07-07 09:01:00,SystemResetWarning,0830.0,5.01,000.00,029.8,028.5,000.0,038.3,031.3,24.7,0000.0,0009.82,0005.86,0005.27
2023-07-07 09:02:00,SystemResetWarning,0830.0,4.99,000.00,029.8,028.5,000.0,038.3,031.3,24.6,0000.0,0010.23,0005.84,0005.26
2023-07-07 09:03:00,SystemResetWarning,0829.9,4.99,000.00,029.8,028.5,000.0,038.3,031.3,24.6,0000.0,0010.60,0005.80,0005.26
2023-07-07 09:04:00,SystemResetWarning,0829.9,5.00,000.00,029.8,028.5,000.0,038.3,031.3,24.4,0000.0,0010.71,0005.79,0005.26
2023-07-07 09:05:00,SystemResetWarning,0829.8,4.99,000.00,029.8,028.5,000.0,038.3,031.4,24.7,0000.0,0010.70,0005.78,0005.25
2023-07-07 09:06:00,SystemResetWarning,0829.8,5.00,000.00,029.9,028.6,000.0,038.3,031.4,24.5,0000.0,0010.72,0005.77,0005.24
2023-07-07 09:07:00,SystemResetWarning,0829.8,5.01,000.00,029.9,028.6,000.0,038.3,031.4,24.4,0000.0,0010.81,0005.78,0005.24
2023-07-07 09:08:00,SystemResetWarning,0829.9,5.00,000.00,029.9,028.6,000.0,038.4,031.4,24.5,0000.0,0011.04,0005.77,0005.24
2023-07-07 09:09:00,SystemResetWarning,0829.9,4.99,000.00,029.9,028.6,000.0,038.4,031.4,24.5,0000.0,0011.65,0005.78,0005.24
2023-07-07 09:10:00,SystemResetWarning,0829.9,5.00,000.00,029.9,028.6,000.0,038.4,031.4,24.5,0000.0,0011.50,0005.77,0005.23
2023-07-07 09:11:00,SystemResetWarning,0830.0,5.01,000.00,029.9,028.6,000.0,038.4,031.4,24.5,0000.0,0010.98,0005.72,0005.21
2023-07-07 09:12:00,SystemResetWarning,0830.0,5.01,000.00,029.9,028.6,000.0,038.4,031.4,24.5,0000.0,0010.55,0005.69,0005.21
2023-07-07 09:13:00,SystemResetWarning,0830.0,5.00,000.00,029.9,028.6,000.0,038.4,031.4,24.5,0000.0,0010.01,0005.65,0005.21
2023-07-07 09:14:00,SystemResetWarning,0830.1,4.99,000.00,030.0,028.7,000.0,038.4,031.5,24.5,0000.0,0009.57,0005.64,0005.20
2023-07-07 09:15:00,SystemResetWarning,0830.0,5.00,000.00,030.0,028.7,000.0,038.5,031.5,24.6,0000.0,0009.46,0005.66,0005.19
2023-07-07 09:16:00,SystemResetWarning,0830.0,5.00,000.00,030.0,028.7,000.0,038.5,031.5,24.7,0000.0,0009.51,0005.66,0005.19
2023-07-07 09:17:00,SystemResetWarning,0830.0,5.00,000.00,030.0,028.7,000.0,038.5,031.5,24.5,0000.0,0009.52,0005.67,0005.19
2023-07-07 09:18:00,SystemResetWarning,0830.0,4.99,000.00,030.0,027.8,000.0,038.4,031.5,24.5,0000.0,0009.47,0005.65,0005.18
2023-07-07 09:19:00,SystemResetWarning,0830.1,5.01,000.00,029.9,025.7,000.0,038.3,031.3,24.5,0000.0,0009.82,0005.67,0005.19
2023-07-07 09:20:00,SystemResetWarning,0830.1,5.00,000.00,029.8,024.9,000.0,038.2,031.0,24.4,0000.0,0009.43,0005.67,0005.20
2023-07-07 09:21:00,SystemResetWarning,0830.0,5.01,000.00,029.7,025.1,000.0,038.2,030.7,25.5,0000.0,0009.36,0005.65,0005.20
2023-07-07 09:22:00,SystemResetWarning,0830.0,5.01,000.00,029.6,025.5,000.0,038.2,030.6,26.0,0000.0,0009.47,0005.68,0005.20
2023-07-07 09:23:00,SystemResetWarning,0830.0,5.00,000.00,029.5,026.0,000.0,038.2,030.7,26.0,0000.0,0009.52,0005.69,0005.22
2023-07-07 09:24:00,SystemResetWarning,0830.0,5.00,000.00,029.5,026.4,000.0,038.2,030.8,26.7,0000.0,0009.51,0005.68,0005.22
2023-07-07 09:25:00,SystemResetWarning,0830.0,5.00,000.00,029.5,026.7,000.0,038.2,030.8,27.2,0000.0,0009.61,0005.70,0005.21
2023-07-07 09:26:00,SystemResetWarning,0830.0,5.00,000.00,029.5,027.0,000.0,038.2,030.9,27.0,0000.0,0009.68,0005.73,0005.21
2023-07-07 09:27:00,SystemResetWarning,0830.0,4.99,000.00,029.5,027.3,000.0,038.1,030.9,26.6,-000.1,0009.69,0005.71,0005.20
2023-07-07 09:28:00,SystemResetWarning,0830.0,5.01,000.00,029.5,027.5,000.0,038.1,030.9,26.7,-000.4,0010.00,0005.70,0005.19
2023-07-07 09:29:00,SystemResetWarning,0830.0,5.01,000.00,029.5,027.7,000.0,038.1,031.0,26.3,-000.7,0009.91,0005.67,0005.19
2023-07-07 09:30:00,SystemResetWarning,0830.0,4.99,000.00,029.5,027.8,000.0,038.1,031.0,26.2,-000.1,0009.59,0005.62,0005.17
2023-07-07 09:31:00,SystemResetWarning,0830.0,5.00,000.00,029.5,027.9,000.0,038.1,031.0,26.4,0000.0,0008.95,0005.61,0005.16
2023-07-07 09:32:00,SystemResetWarning,0830.1,4.99,000.00,029.5,028.0,000.0,038.1,031.1,26.1,0000.0,0008.94,0005.62,0005.15
2023-07-07 09:33:00,SystemResetWarning,0830.1,5.00,000.00,029.5,028.1,000.0,038.1,031.1,25.9,0000.0,0008.92,0005.60,0005.14
2023-07-07 09:34:00,SystemResetWarning,0830.2,5.01,000.00,029.6,028.2,000.0,038.1,031.1,25.7,0000.0,0008.86,0005.57,0005.11
2023-07-07 09:35:00,SystemResetWarning,0830.2,5.00,000.00,029.6,028.3,000.0,038.1,031.2,25.6,0000.0,0009.07,0005.59,0005.08
2023-07-07 09:36:00,SystemResetWarning,0830.3,5.00,000.00,029.6,028.3,000.0,038.1,031.2,25.4,0000.0,0009.09,0005.56,0005.07
2023-07-07 09:37:00,SystemResetWarning,0830.4,5.00,000.00,029.6,028.4,000.0,038.2,031.2,25.2,0000.0,0009.04,0005.51,0005.05
2023-07-07 09:38:00,SystemResetWarning,0830.5,5.00,000.00,029.7,028.4,000.0,038.2,031.2,25.2,0000.0,0008.93,0005.49,0005.04
2023-07-07 09:39:00,SystemResetWarning,0830.6,5.00,000.00,029.7,028.4,000.0,038.2,031.2,25.5,0000.0,0008.71,0005.50,0005.04
2023-07-07 09:40:00,SystemResetWarning,0830.4,5.00,000.00,029.7,028.5,000.0,038.2,031.3,26.5,0000.0,0008.56,0005.51,0005.03
2023-07-07 09:41:00,SystemResetWarning,0830.5,5.00,000.00,029.7,028.5,000.0,038.2,031.3,27.0,0000.0,0008.62,0005.54,0005.03
2023-07-07 09:42:00,SystemResetWarning,0830.5,5.01,000.00,029.7,028.5,000.0,038.2,031.3,27.0,0000.0,0008.62,0005.54,0005.01
2023-07-07 09:43:00,SystemResetWarning,0830.5,5.01,000.00,029.8,028.5,000.0,038.2,031.3,27.3,0000.0,0008.61,0005.52,0005.00
2023-07-07 09:44:00,SystemResetWarning,0830.5,5.00,000.00,029.8,028.6,000.0,038.3,031.3,27.3,0000.0,0008.62,0005.53,0005.00
2023-07-07 09:45:00,SystemResetWarning,0830.4,4.99,000.00,029.8,028.6,000.0,038.3,031.4,27.1,0000.0,0008.96,0005.57,0005.02
2023-07-07 09:46:00,SystemResetWarning,0830.5,5.00,000.00,029.8,028.6,000.0,038.3,031.4,26.9,0000.0,0009.77,0005.64,0005.06
2023-07-07 09:47:00,SystemResetWarning,0830.5,4.99,000.00,029.8,028.6,000.0,038.3,031.4,26.9,0000.0,0009.84,0005.70,0005.11
2023-07-07 09:48:00,SystemResetWarning,0830.5,5.00,000.00,029.9,028.6,000.0,038.3,031.4,27.0,0000.0,0010.14,0005.81,0005.14
2023-07-07 09:49:00,SystemResetWarning,0830.6,5.01,000.00,029.9,028.6,000.0,038.3,031.4,27.0,0000.0,0010.33,0005.88,0005.18
2023-07-07 09:50:00,SystemResetWarning,0830.6,5.01,000.00,029.9,028.6,000.0,038.4,031.4,27.1,0000.0,0010.48,0005.92,0005.20
2023-07-07 09:51:00,SystemResetWarning,0830.6,5.00,000.00,029.9,028.6,000.0,038.4,031.4,27.3,0001.2,0010.70,0005.98,0005.23
2023-07-07 09:52:00,SystemResetWarning,0830.7,5.00,000.00,029.9,028.6,000.0,038.4,031.5,27.5,0002.6,0010.94,0006.00,0005.27
2023-07-07 09:53:00,SystemResetWarning,0830.6,5.00,000.00,029.9,028.7,000.0,038.4,031.5,27.9,0002.7,0012.10,0006.05,0005.30
2023-07-07 09:54:00,SystemResetWarning,0830.7,4.99,000.00,030.0,028.7,000.0,038.4,031.5,28.6,0003.1,0012.57,0006.09,0005.34
2023-07-07 09:55:00,SystemResetWarning,0830.7,5.00,000.00,030.0,028.7,000.0,038.4,031.5,29.1,0002.5,0012.80,0006.15,0005.38
2023-07-07 09:56:00,SystemResetWarning,0830.7,5.02,000.00,030.0,028.6,000.0,038.4,031.5,29.4,0001.4,0012.79,0006.21,0005.41
2023-07-07 09:57:00,SystemResetWarning,0830.8,4.99,000.00,030.0,028.7,000.0,038.5,031.5,29.6,0001.1,0012.42,0006.19,0005.43
2023-07-07 09:58:00,SystemResetWarning,0830.9,4.99,000.00,030.0,028.7,000.0,038.5,031.5,29.9,0001.2,0012.67,0006.24,0005.46
2023-07-07 09:59:00,SystemResetWarning,0830.9,5.01,000.00,030.0,028.7,000.0,038.5,031.5,30.2,0000.5,0013.01,0006.26,0005.49
